Volver al catálogo

KUIPER-00644

ActivoComunicacionesVLEO
NORAD 69788·PAYLOAD·🇺🇸 United States

Lanzado Jul 2, 2026 desde Cape Canaveral Space Force Station

Loading…

Próximos Pases (próximas 24 horas)

TLE

ActualizadoSource: CelesTrak SupGP

Época: Sep 14, 2026, 16:16 UTC

1 69788C 26151AB  26257.67847222 -.00665870  00000+0 -37147-1 0  2576
2 69788  51.8844 244.5606 0009337  34.6956 357.2297 15.13655529    10

Sigue KUIPER-00644 en tiempo real con AllMySat

Download on the App Store